{"data":{"norad_id":67354,"intl_designator":"2026-003W","name":"STARLINK-36448","alt_names":[],"object_type":"PAYLOAD","status":"ACTIVE","operator":null,"country":"US","launch_date":"2026-01-09","launch_site_code":"AFETR","launch_vehicle":null,"mission":null,"orbit_class":"UNKNOWN","rcs_meters":null,"size_class":null,"mass_kg":null,"dimensions":null,"purposes":["comms"],"wikipedia_slug":null,"has_3d_model":false,"image_url":null,"decayed_at":null,"tle_current":{"epoch":"2026-09-19T04:06:41.971104Z","epoch_age_seconds":190259,"freshness":"STALE","line1":"1 67354U 26003W   26262.17131911  .00009353  00000+0  34893-3 0  9997","line2":"2 67354  42.9992 214.4455 0002113 280.7687  79.2927 15.27582795 38415","mean_motion":15.27582795,"eccentricity":0.0002113,"inclination_deg":42.9992,"raan_deg":214.4455,"arg_perigee_deg":280.7687,"mean_anomaly_deg":79.2927,"bstar":0.00034893,"rev_number":3841,"period_min":94.266576234907,"perigee_km":481.59095996324,"apogee_km":484.49049367059,"semimajor_km":6861.1777268169,"source":"CELESTRAK","updated_at":"2026-09-20T09:00:43.515905Z"}}}